This is the latest recevied weather packets stored in our database for station/object KM7BEO. If no packets are shown the sender has not sent any weather packets the latest 10 day(s).
| Time | Temp. | Humidity | Pressure | Rain* | Wind** | Luminosity | Snow |
|---|---|---|---|---|---|---|---|
| 1777644105 | 8.89° C | 97% | 1016.6 hPa | 0 mm | - | 34 W/m² | - |
| 1777643802 | 8.89° C | 97% | 1016.5 hPa | 0 mm | - | 28 W/m² | - |
| 1777643499 | 8.89° C | 97% | 1016.5 hPa | 0 mm | - | 26 W/m² | - |
| 1777643196 | 8.89° C | 97% | 1016.4 hPa | 0 mm | - | 23 W/m² | - |
| 1777642892 | 8.89° C | 97% | 1016.4 hPa | 0 mm | - | 22 W/m² | - |
| 1777642589 | 8.89° C | 97% | 1016.4 hPa | 0 mm | - | 17 W/m² | - |
| 1777642286 | 8.89° C | 97% | 1016.4 hPa | 0 mm | - | 17 W/m² | - |
| 1777641983 | 8.89° C | 97% | 1016.4 hPa | 0 mm | - | 15 W/m² | - |
| 1777641679 | 8.89° C | 97% | 1016.1 hPa | 0 mm | - | 11 W/m² | - |
| 1777641374 | 8.89° C | 97% | 1016.1 hPa | 0 mm | - | 8 W/m² | - |
| 1777641069 | 8.89° C | 96% | 1016.2 hPa | 0 mm | - | 6 W/m² | - |
| 1777640765 | 8.89° C | 96% | 1016.1 hPa | 0 mm | - | 4 W/m² | - |
| 1777640463 | 8.89° C | 96% | 1016.1 hPa | 0 mm | - | 2 W/m² | - |
| 1777640159 | 8.89° C | 96% | 1016.1 hPa | 0 mm | - | 2 W/m² | - |
| 1777639856 | 8.89° C | 96% | 1016.1 hPa | 0 mm | - | 1 W/m² | - |
| 1777639554 | 8.89° C | 96% | 1016.1 hPa | 0 mm | - | 1 W/m² | - |
| 1777639250 | 8.89° C | 96% | 1015.8 hPa | 0 mm | - | 0 W/m² | - |
| 1777638946 | 8.89° C | 96% | 1016 hPa | 0 mm | - | 0 W/m² | - |
| 1777638642 | 8.89° C | 96% | 1015.8 hPa | 0 mm | - | 0 W/m² | - |
| 1777638339 | 8.33° C | 96% | 1015.9 hPa | 0 mm | - | 0 W/m² | - |
| 1777638035 | 8.89° C | 95% | 1016 hPa | 0 mm | - | 0 W/m² | - |
| 1777637732 | 8.89° C | 95% | 1016 hPa | 0 mm | - | 0 W/m² | - |
| 1777637428 | 8.89° C | 95% | 1015.6 hPa | 0 mm | - | 0 W/m² | - |
| 1777637126 | 8.89° C | 95% | 1015.9 hPa | 0 mm | - | 0 W/m² | - |
| 1777636822 | 8.89° C | 95% | 1015.9 hPa | 0 mm | - | 0 W/m² | - |
* Rain latest hour (hover to see other rain measurements)
** Current wind speed in m/s (hover to see current wind gust speed)